CAPE
60 0 0 0 69 72 2 17 0 0 0 0 0 0 0 0 0 0 0 0 0 0 0 0 14 12 17 23 9 19 11 27 32 24 15 10 20 18 19 15 16 18 17 28 14 21 25 17 16
0 0 0 0 2 0 35 3 0 0 0 0 0 0 0 0 0 0 0 0 0 0 0 0 18 11 6 12 10 12 10 12 11 16 10 6 20 9 14 11 13 12 17 18 9 16 17 17 4
3 0 0 0 0 0 48 10 0 0 0 0 0 0 0 0 0 0 0 0 0 0 0 0 16 11 22 20 6 12 17 18 9 7 7 8 10 13 14 10 11 6 6 8 4 7 9 5 1
0 0 0 0 0 0 8 0 0 0 0 0 0 0 0 0 0 0 0 0 0 0 0 0 11 14 8 9 11 7 6 6 5 8 4 6 4 8 9 6 3 1 0 0 1 0 0 0 0
0 0 0 0 0 0 4 0 0 0 0 0 0 0 0 0 0 0 0 0 0 0 0 0 11 15 10 22 12 13 6 11 7 4 4 3 4 0 0 0 0 0 0 0 0 0 0 0 0
0 0 0 0 0 0 10 0 0 0 0 0 0 0 0 0 0 0 0 0 0 0 0 2 11 11 8 7 9 9 6 10 5 1 2 2 1 0 0 0 0 0 0 0 0 0 0 0 0
0 0 0 0 0 2 13 0 0 0 0 0 0 0 0 0 0 0 0 0 0 0 0 0 0 8 10 15 9 9 7 7 0 0 0 0 0 0 0 0 0 0 0 0 0 0 0 0 0
0 0 0 0 0 4 3 0 0 0 0 0 0 0 0 0 0 0 0 0 0 0 0 0 0 0 0 0 9 10 6 3 0 0 0 0 0 0 0 0 0 0 0 0 0 0 0 0 0
0 0 0 0 0 0 0 0 0 0 0 0 0 0 0 0 0 0 0 0 0 0 0 0 0 0 0 0 0 3 7 6 2 0 0 0 0 0 0 0 0 0 0 0 0 0 0 0 0
0 0 0 0 0 0 12 0 0 0 0 0 0 0 0 0 0 0 0 0 0 0 0 0 0 0 0 0 0 0 0 0 0 0 0 0 0 0 0 0 0 0 0 0 0 0 0 0 0
0 0 1 0 0 0 0 0 0 0 0 0 0 0 0 0 0 0 0 0 0 0 0 0 0 0 0 0 0 0 0 0 0 0 0 0 0 0 0 0 0 0 0 0 0 0 0 0 0
0 0 0 0 0 0 0 0 0 0 0 0 0 0 0 0 0 0 0 0 0 0 0 0 0 0 0 0 0 0 0 0 0 0 0 0 0 0 0 0 0 0 0 0 0 0 0 0 0
0 0 0 0 0 0 0 0 0 0 0 0 0 0 0 0 0 0 0 0 0 0 0 0 0 0 0 0 0 0 0 0 0 0 0 0 0 0 0 0 0 0 0 0 0 0 0 0 0
0 0 0 0 0 0 0 0 0 0 0 0 0 0 0 0 0 0 0 0 0 0 0 0 0 0 0 0 0 0 0 0 0 0 0 0 0 0 0 0 0 0 0 0 0 0 0 0 0
0 0 0 0 0 0 0 0 0 0 0 0 0 0 0 0 0 0 0 0 0 0 0 0 0 0 0 0 0 0 0 0 0 0 0 0 0 0 0 0 0 0 0 0 0 0 0 0 0
0 0 0 0 0 0 0 0 0 0 0 0 0 0 0 0 0 0 0 0 0 0 0 0 0 0 0 0 0 0 0 0 0 0 0 0 0 0 0 0 0 0 0 0 0 0 0 0 0
0 0 0 0 0 0 0 0 0 0 0 0 0 0 0 0 0 0 0 0 0 0 0 0 0 0 0 0 0 0 0 0 0 0 0 0 0 0 0 0 0 0 0 0 0 0 0 0 0
0 0 0 0 0 0 0 0 0 0 0 0 0 0 0 0 0 0 0 0 0 0 0 0 0 0 0 0 0 0 0 0 0 0 0 0 0 0 0 0 0 0 0 0 0 0 0 0 0
0 0 0 0 0 0 0 0 0 0 0 0 0 0 0 0 0 0 0 0 0 0 0 0 0 0 0 0 0 0 0 0 0 0 0 0 0 0 0 0 0 0 0 0 0 0 0 0 0
0 0 0 0 0 0 0 0 0 0 0 0 0 0 0 0 0 0 0 0 0 0 0 0 0 0 0 0 0 0 0 0 0 0 0 0 0 0 0 0 0 0 0 0 0 0 0 0 0
0 0 0 0 0 0 0 0 0 0 0 0 0 0 0 0 0 0 0 0 0 0 0 0 0 0 0 0 0 0 0 0 0 0 0 0 0 0 0 0 0 0 0 0 0 0 0 0 0
0 0 0 0 0 0 0 0 0 0 0 0 0 0 0 0 0 0 0 0 0 0 0 0 0 0 0 0 0 0 0 0 0 0 0 0 0 0 0 0 0 0 0 0 0 0 0 0 0
0 0 0 0 0 0 0 0 0 0 0 0 0 0 0 0 0 0 0 0 0 0 0 0 0 0 0 0 0 0 0 0 0 0 0 0 0 0 0 0 0 0 0 0 0 0 0 0 0
0 0 0 0 0 0 0 0 0 0 0 0 0 0 0 0 0 0 0 0 0 0 0 0 0 0 0 0 0 0 0 0 0 0 0 0 0 0 0 0 0 0 0 0 0 0 0 0 0
0 0 0 0 0 0 0 0 0 0 0 0 0 0 0 0 0 0 0 0 0 0 0 0 0 0 0 0 0 0 0 0 0 0 0 0 0 0 0 0 0 0 0 0 0 0 0 0 0
0 0 0 0 0 0 0 0 0 0 0 0 0 0 0 0 0 0 0 0 0 0 0 0 0 0 0 0 0 0 0 0 0 0 0 0 0 0 0 0 0 0 0 0 0 0 0 0 0
0 0 0 0 0 0 0 0 0 0 0 0 0 0 0 0 0 0 0 0 0 0 0 0 0 0 0 0 0 0 0 0 0 0 0 0 0 0 0 0 0 0 0 0 0 0 0 0 0
0 0 0 0 0 0 0 0 0 0 0 0 0 0 0 0 0 0 0 0 0 0 0 0 0 0 0 0 0 0 0 0 0 0 0 0 0 0 0 0 0 0 0 0 0 0 0 0 0
0 0 0 0 0 0 0 0 0 0 0 0 0 0 0 0 0 0 0 0 0 0 0 0 0 0 0 0 0 0 0 0 0 0 0 0 0 0 0 0 0 0 0 0 0 0 0 0 0
0 0 0 0 0 0 0 0 0 0 0 0 0 0 0 0 0 0 0 0 0 0 0 0 0 0 0 0 0 0 0 0 0 0 0 0 0 0 0 0 0 0 0 0 0 0 0 0 0
CIN
-18 0 0 0 -61 -55 -8 -30 0 0 0 0 0 0 0 0 0 0 0 0 0 0 0 0 0 0 -2 0 0 0 0 -1 -1 0 -1 -1 -1 -1 -1 0 0 0 0 -1 0 0 0 0 0
0 0 0 0 -2 0 -25 -6 0 0 0 0 0 0 0 0 0 0 0 0 0 0 0 0 0 0 0 0 0 0 0 0 -2 0 -1 -2 -1 0 0 0 0 0 0 0 0 0 0 0 0
-9 0 0 0 0 0 -21 -27 0 0 0 0 0 0 0 0 0 0 0 0 0 0 0 0 0 -1 0 0 0 0 0 -1 0 0 0 -1 0 0 0 0 0 0 0 0 0 0 0 0 0
0 0 0 0 0 0 -4 0 0 0 0 0 0 0 0 0 0 0 0 0 0 0 0 0 0 0 0 0 0 -1 0 -1 0 0 0 0 0 0 0 0 0 0 0 0 0 0 0 0 0
0 0 0 0 0 0 -14 0 0 0 0 0 0 0 0 0 0 0 0 0 0 0 0 0 0 0 0 0 0 0 0 0 0 0 0 0 0 0 0 0 0 0 0 0 0 0 0 0 0
0 0 0 0 0 0 -14 0 0 0 0 0 0 0 0 0 0 0 0 0 0 0 0 -2 0 0 0 0 0 0 0 0 0 0 0 0 0 0 0 0 0 0 0 0 0 0 0 0 0
0 0 0 0 0 -1 -18 0 0 0 0 0 0 0 0 0 0 0 0 0 0 0 0 0 0 -2 0 0 0 0 0 0 0 0 0 0 0 0 0 0 0 0 0 0 0 0 0 0 0
0 0 0 0 0 -4 -23 0 0 0 0 0 0 0 0 0 0 0 0 0 0 0 0 0 0 0 -2 0 0 0 0 0 0 0 0 0 0 0 0 0 0 0 0 0 0 0 0 0 0
0 0 0 0 0 0 0 0 0 0 0 0 0 0 0 0 0 0 0 0 0 0 0 0 0 0 0 0 0 0 0 0 0 0 0 0 0 0 0 0 0 0 0 0 0 0 0 0 0
0 0 0 0 0 0 -28 0 0 0 0 0 0 0 0 0 0 0 0 0 0 0 0 0 0 0 0 0 0 0 0 0 0 0 0 0 0 0 0 0 0 0 0 0 0 0 0 0 0
0 0 -9 0 0 0 -3 0 0 0 0 0 0 0 0 0 0 0 0 0 0 0 0 0 0 0 0 0 0 0 0 0 0 0 0 0 0 0 0 0 0 0 0 0 0 0 0 0 0
0 0 0 0 0 0 0 0 0 0 0 0 0 0 0 0 0 0 0 0 0 0 0 0 0 0 0 0 0 0 0 0 0 0 0 0 0 0 0 0 0 0 0 0 0 0 0 0 0
0 0 0 0 0 0 0 0 0 0 0 0 0 0 0 0 0 0 0 0 0 0 0 0 0 0 0 0 0 0 0 0 0 0 0 0 0 0 0 0 0 0 0 0 0 0 0 0 0
0 0 0 0 0 0 0 0 0 0 0 0 0 0 0 0 0 0 0 0 0 0 0 0 0 0 0 0 0 0 0 0 0 0 0 0 0 0 0 0 0 0 0 0 0 0 0 0 0
0 0 0 0 0 0 0 0 0 0 0 0 0 0 0 0 0 0 0 0 0 0 0 0 0 0 0 0 0 0 0 0 0 0 0 0 0 0 0 0 0 0 0 0 0 0 0 0 0
0 0 0 0 0 0 0 0 0 0 0 0 0 0 0 0 0 0 0 0 0 0 0 0 0 0 0 0 0 0 0 0 0 0 0 0 0 0 0 0 0 0 0 0 0 0 0 0 0
0 0 0 0 0 0 0 0 0 0 0 0 0 0 0 0 0 0 0 0 0 0 0 0 0 0 0 0 0 0 0 0 0 0 0 0 0 0 0 0 0 0 0 0 0 0 0 0 0
0 0 0 0 0 0 0 0 0 0 0 0 0 0 0 0 0 0 0 0 0 0 0 0 0 0 0 0 0 0 0 0 0 0 0 0 0 0 0 0 0 0 0 0 0 0 0 0 0
0 0 0 0 0 0 0 0 0 0 0 0 0 0 0 0 0 0 0 0 0 0 0 0 0 0 0 0 0 0 0 0 0 0 0 0 0 0 0 0 0 0 0 0 0 0 0 0 0
0 0 0 0 0 0 0 0 0 0 0 0 0 0 0 0 0 0 0 0 0 0 0 0 0 0 0 0 0 0 0 0 0 0 0 0 0 0 0 0 0 0 0 0 0 0 0 0 0
0 0 0 0 0 0 0 0 0 0 0 0 0 0 0 0 0 0 0 0 0 0 0 0 0 0 0 0 0 0 0 0 0 0 0 0 0 0 0 0 0 0 0 0 0 0 0 0 0
0 0 0 0 0 0 0 0 0 0 0 0 0 0 0 0 0 0 0 0 0 0 0 0 0 0 0 0 0 0 0 0 0 0 0 0 0 0 0 0 0 0 0 0 0 0 0 0 0
0 0 0 0 0 0 0 0 0 0 0 0 0 0 0 0 0 0 0 0 0 0 0 0 0 0 0 0 0 0 0 0 0 0 0 0 0 0 0 0 0 0 0 0 0 0 0 0 0
0 0 0 0 0 0 0 0 0 0 0 0 0 0 0 0 0 0 0 0 0 0 0 0 0 0 0 0 0 0 0 0 0 0 0 0 0 0 0 0 0 0 0 0 0 0 0 0 0
0 0 0 0 0 0 0 0 0 0 0 0 0 0 0 0 0 0 0 0 0 0 0 0 0 0 0 0 0 0 0 0 0 0 0 0 0 0 0 0 0 0 0 0 0 0 0 0 0
0 0 0 0 0 0 0 0 0 0 0 0 0 0 0 0 0 0 0 0 0 0 0 0 0 0 0 0 0 0 0 0 0 0 0 0 0 0 0 0 0 0 0 0 0 0 0 0 0
0 0 0 0 0 0 0 0 0 0 0 0 0 0 0 0 0 0 0 0 0 0 0 0 0 0 0 0 0 0 0 0 0 0 0 0 0 0 0 0 0 0 0 0 0 0 0 0 0
0 0 0 0 0 0 0 0 0 0 0 0 0 0 0 0 0 0 0 0 0 0 0 0 0 0 0 0 0 0 0 0 0 0 0 0 0 0 0 0 0 0 0 0 0 0 0 0 0
0 0 0 0 0 0 0 0 0 0 0 0 0 0 0 0 0 0 0 0 0 0 0 0 0 0 0 0 0 0 0 0 0 0 0 0 0 0 0 0 0 0 0 0 0 0 0 0 0
0 0 0 0 0 0 0 0 0 0 0 0 0 0 0 0 0 0 0 0 0 0 0 0 0 0 0 0 0 0 0 0 0 0 0 0 0 0 0 0 0 0 0 0 0 0 0 0 0
Wind_Speed
14 12 4 2 2 4 10 2 5 7 4 4 4 5 5 11 5 3 7 9 16 13 12 12 15 13 12 11 11 10 9 11 11 11 11 11 12 12 12 14 14 12 12 14 14 15 16 16 16
7 15 1 3 3 6 6 8 11 10 7 7 4 2 4 6 8 10 7 14 14 15 12 11 14 12 12 12 11 11 10 10 10 11 10 10 11 11 10 12 12 11 12 13 14 15 14 15 14
9 12 1 4 4 9 1 10 9 9 6 3 4 2 5 4 13 11 12 15 14 15 13 12 15 13 13 12 11 11 10 9 9 9 9 8 10 10 11 10 11 11 11 12 12 12 13 13 13
4 1 4 4 10 12 2 11 11 8 5 3 3 9 7 7 9 11 12 14 11 12 15 16 16 14 12 12 12 10 9 8 9 8 8 9 8 9 10 10 9 9 10 11 11 12 12 12 13
3 3 4 5 11 15 6 10 7 6 7 7 3 5 7 4 16 15 12 12 11 11 14 12 16 15 12 13 12 11 10 9 8 7 7 6 8 8 7 8 8 8 8 8 9 9 9 9 10
3 3 5 7 11 13 6 8 5 2 7 6 3 6 5 8 12 11 11 11 10 13 14 12 15 14 15 11 11 11 9 9 7 7 6 6 7 6 7 6 6 6 6 6 6 7 8 8 8
4 4 7 11 10 8 6 9 5 5 6 6 3 2 7 8 9 11 9 10 10 12 14 11 8 11 14 12 12 10 9 8 7 7 5 5 4 4 4 3 5 5 5 5 5 5 6 5 6
3 3 10 8 9 7 7 6 7 2 6 4 2 0 7 9 11 10 9 9 9 8 13 13 11 8 6 7 11 11 12 9 8 7 6 5 5 4 4 4 3 4 3 2 2 3 4 3 2
2 3 5 9 6 6 7 4 4 4 6 1 3 7 12 16 12 9 7 8 7 8 8 12 14 12 9 9 8 10 9 10 9 8 7 5 5 6 8 6 4 0 1 1 2 2 2 3 4
3 3 9 6 7 8 7 2 6 3 6 5 8 6 14 12 10 11 9 9 9 9 8 8 12 12 11 10 9 7 7 4 5 6 7 6 6 5 6 6 4 3 4 4 4 5 6 6 3
5 6 12 7 8 8 9 6 4 3 6 6 13 14 14 9 11 12 11 10 10 9 7 8 7 8 8 8 7 3 4 4 5 8 7 7 3 4 3 3 3 3 7 4 6 5 3 5 1
3 10 10 6 5 3 7 8 6 5 9 8 3 20 15 13 14 13 13 11 13 11 9 9 9 7 8 5 6 5 4 4 3 4 4 2 1 2 4 3 4 4 3 3 3 1 2 4 5
7 10 10 3 6 5 8 9 7 10 8 9 6 16 14 12 12 10 10 10 12 13 11 9 9 8 7 7 5 5 5 5 5 5 5 3 3 3 2 3 3 3 2 2 2 2 2 4 3
9 9 9 9 8 7 9 9 7 7 10 9 6 11 14 13 13 11 10 11 12 14 14 11 9 8 7 6 7 5 5 6 5 5 6 6 4 4 3 3 3 3 3 2 1 1 1 3 3
7 10 10 11 12 9 4 8 10 14 13 10 10 11 11 13 12 12 13 10 13 13 16 15 11 9 8 8 7 5 5 5 5 5 7 8 6 6 5 3 4 4 3 2 1 3 2 3 4
8 9 7 4 6 4 6 8 13 11 13 14 12 10 10 13 12 11 10 11 11 11 16 15 14 13 9 7 6 5 4 4 5 5 5 8 8 6 4 3 3 4 3 2 2 2 1 3 3
7 6 7 5 8 6 7 8 8 9 1 5 7 8 8 9 12 11 11 12 11 12 14 16 15 14 12 8 6 6 7 5 4 5 5 8 7 7 5 3 4 5 4 3 3 2 2 2 3
6 8 9 8 3 5 8 13 10 11 11 11 10 9 8 10 11 11 11 10 10 10 13 16 14 13 13 8 6 5 5 5 5 5 5 8 6 7 6 4 5 4 4 3 2 3 2 2 3
7 8 8 10 6 4 7 11 14 11 7 9 9 10 9 8 9 10 10 10 10 10 10 14 15 14 10 9 7 5 6 5 4 5 8 8 7 8 7 4 5 4 4 5 5 4 4 2 3
7 9 10 5 2 6 8 16 14 3 5 4 5 8 9 8 8 10 11 10 10 10 10 11 14 14 10 8 7 4 5 4 4 5 6 7 7 8 7 7 5 6 4 5 4 4 2 3 2
8 7 5 5 10 11 9 4 6 6 9 7 9 7 7 3 5 10 11 12 10 10 10 10 12 14 13 10 5 4 3 3 4 5 4 6 8 8 8 8 6 6 5 5 5 5 6 3 3
7 6 5 6 7 4 7 2 8 8 11 12 11 10 10 11 10 6 5 15 15 13 10 11 9 13 13 12 10 8 8 6 5 5 4 6 8 8 8 8 7 7 5 6 5 6 5 4 4
2 5 6 6 6 6 2 2 1 9 9 10 10 10 9 9 10 11 10 2 13 14 11 12 10 9 11 12 10 8 7 5 4 4 6 7 7 8 8 8 8 7 5 7 7 5 6 5 4
8 7 11 7 4 3 5 2 3 4 7 7 8 9 9 8 8 7 9 9 4 8 9 10 11 9 9 9 10 10 10 7 5 6 6 6 5 6 8 9 8 7 7 7 6 7 8 7 5
5 5 4 1 2 3 4 2 6 8 7 9 7 7 9 9 7 7 7 8 8 3 8 9 10 9 9 9 9 10 9 10 10 9 8 7 7 5 9 10 9 7 7 8 7 7 7 7 6
4 3 2 4 4 1 2 3 7 9 5 5 9 8 8 9 8 9 7 4 6 7 1 7 8 8 9 9 9 10 9 7 9 8 6 7 7 8 8 11 8 9 8 8 7 5 5 7 6
3 2 1 4 5 2 5 6 6 9 6 2 11 10 10 10 9 10 10 8 3 1 4 5 6 6 8 9 8 10 12 11 11 11 7 8 8 7 9 12 12 9 9 9 8 6 7 7 6
3 5 1 2 3 4 4 8 5 10 7 9 11 11 9 10 11 10 9 10 9 5 1 4 7 8 8 8 9 10 12 13 13 9 12 10 8 9 9 12 12 10 9 9 9 7 6 7 6
3 3 4 1 2 1 4 3 6 11 12 11 11 10 9 9 9 10 10 9 10 10 9 5 5 8 8 8 7 8 10 12 11 13 12 13 10 9 10 14 13 13 12 11 10 10 9 11 9
3 5 3 2 3 2 3 6 11 15 11 11 10 9 9 9 9 10 11 10 11 11 11 12 11 7 7 8 8 9 8 8 11 13 15 13 14 14 14 11 15 15 15 13 14 13 13 14 13
Wind_Direction
300 291 244 334 253 211 263 79 108 114 121 86 35 6 32 42 17 112 170 126 128 134 135 150 149 141 119 117 121 100 110 88 88 82 72 78 72 71 60 72 70 74 72 69 68 66 62 66 58
290 291 298 262 245 269 264 118 82 72 87 70 99 206 244 89 79 119 124 128 140 129 146 151 152 141 139 138 124 122 113 103 91 93 89 89 81 88 72 74 75 72 67 66 66 63 66 64 63
261 261 282 201 223 263 5 85 98 96 121 132 130 354 22 84 117 154 135 140 137 140 148 145 147 148 142 136 135 123 116 116 112 104 102 94 85 79 82 70 65 71 70 68 67 63 65 65 63
306 276 268 267 265 242 305 95 105 120 103 7 351 97 76 16 142 118 150 144 136 141 123 151 150 145 146 137 146 138 130 123 119 108 105 90 96 75 69 76 73 66 64 65 65 61 58 60 59
240 270 241 231 243 273 87 88 137 158 130 136 210 131 96 53 99 126 153 141 140 127 128 154 151 150 155 145 147 140 135 133 119 105 112 114 94 90 82 73 71 68 70 65 61 60 58 55 58
297 229 264 240 248 243 101 114 169 128 120 90 173 129 95 133 121 142 149 144 142 130 140 143 160 171 154 157 161 149 161 136 129 133 129 106 101 89 79 83 76 75 74 71 67 58 55 51 54
253 300 272 283 282 257 119 118 185 173 136 153 22 85 123 155 139 147 155 145 146 139 144 146 162 158 168 168 158 154 152 149 160 155 146 141 129 114 100 72 96 87 76 74 69 54 55 48 46
323 271 277 278 282 294 88 110 14 352 64 94 1 243 156 159 147 150 158 146 143 144 147 149 152 158 168 161 167 171 170 170 164 161 161 171 166 168 178 164 93 92 89 70 41 32 35 26 19
268 281 262 262 258 277 92 137 130 12 133 181 120 65 123 137 146 152 157 149 145 154 158 158 156 164 177 159 168 181 182 172 178 179 183 194 206 194 204 153 139 166 11 355 345 325 317 287 265
228 279 272 345 354 336 95 346 144 165 212 156 111 85 121 139 157 163 173 165 160 160 180 172 159 167 172 169 148 166 180 180 180 191 175 215 222 155 105 141 180 218 232 243 243 255 264 269 249
242 239 291 347 342 354 344 326 270 221 264 189 175 159 149 160 172 175 183 175 169 164 176 167 169 164 157 133 152 180 168 182 194 202 178 207 154 136 178 177 197 206 229 233 227 241 249 254 266
290 271 263 325 333 0 289 284 290 208 258 314 59 154 157 174 183 184 183 180 171 167 175 171 167 160 155 154 158 180 157 183 174 173 186 149 113 245 194 183 181 196 187 242 206 230 219 267 241
264 259 280 316 277 279 263 273 276 281 252 244 138 149 169 180 187 191 182 181 172 172 169 177 161 169 166 166 172 165 174 162 182 167 176 178 194 223 209 189 161 201 171 234 280 254 288 288 311
314 328 297 289 268 246 255 255 258 247 245 265 212 177 176 185 194 184 188 183 178 172 169 171 167 171 172 174 168 182 170 169 180 162 175 197 199 205 215 191 185 187 177 233 214 255 312 294 292
316 285 278 253 228 223 266 279 247 239 243 239 245 205 195 186 188 197 185 184 179 175 167 172 173 171 183 181 172 177 180 161 174 167 179 182 207 205 193 188 178 205 176 143 283 268 236 278 277
256 251 267 134 165 121 116 270 283 274 212 219 224 241 196 197 190 194 185 180 176 170 168 168 176 174 180 182 175 166 176 172 176 176 180 191 196 198 191 187 194 182 144 172 235 248 300 288 272
192 283 240 159 186 140 175 278 302 340 314 282 272 246 214 199 198 188 186 172 175 172 167 170 171 175 179 185 177 168 185 172 194 189 184 191 190 184 183 195 215 177 164 194 216 253 186 274 315
345 335 335 322 174 205 243 262 273 268 255 235 208 248 225 212 197 179 176 166 168 170 170 168 172 178 176 180 178 175 179 179 181 203 191 187 182 185 180 201 211 184 164 205 212 205 278 201 245
323 302 294 288 90 2 289 292 283 270 286 257 219 206 233 259 193 168 168 166 164 169 167 170 172 177 174 180 186 181 186 185 188 189 198 190 179 185 187 193 207 196 175 201 205 192 199 286 227
294 289 283 317 30 326 294 294 292 38 290 289 249 213 207 241 197 166 165 164 168 176 176 172 174 175 181 181 186 182 174 186 180 186 196 192 188 183 180 187 206 197 180 213 215 175 205 226 187
281 274 318 343 322 275 279 251 99 39 37 33 42 24 5 284 277 172 166 172 170 184 181 178 176 175 181 176 167 175 174 179 173 190 192 198 190 191 183 187 194 208 182 193 202 187 181 216 238
286 18 343 321 336 310 22 275 58 60 60 47 43 35 28 14 359 349 217 177 177 182 175 183 179 179 185 180 182 180 191 190 189 177 176 193 192 194 188 189 193 200 196 193 200 193 180 178 218
330 342 298 304 296 305 170 111 116 81 70 58 37 34 40 51 26 360 342 281 186 177 178 179 183 188 187 188 183 183 190 183 181 173 184 189 197 194 190 187 194 204 202 197 195 195 191 184 187
331 290 268 223 235 256 154 173 5 84 92 68 47 36 16 40 33 48 356 340 325 178 168 164 179 188 184 183 188 181 187 187 185 189 194 196 195 197 196 193 193 196 201 201 197 199 192 195 202
241 277 300 150 175 225 132 309 157 115 84 93 75 41 26 24 33 25 38 3 350 277 171 167 169 187 187 184 188 189 189 192 192 199 200 183 191 189 200 191 194 199 195 197 193 195 197 194 197
292 5 309 305 4 349 177 209 181 136 159 84 79 55 32 28 25 21 31 55 6 347 177 171 176 179 185 190 196 194 197 195 210 209 194 194 192 202 186 198 192 195 197 194 192 187 197 193 204
133 227 339 303 239 295 183 75 80 143 178 234 65 44 38 21 13 16 11 11 74 11 298 189 186 202 205 195 191 199 200 204 207 211 207 199 197 194 190 192 199 194 195 192 188 189 200 199 203
252 331 294 248 284 283 213 167 185 171 165 68 51 49 33 21 5 13 8 6 11 7 252 208 196 210 217 221 200 203 208 211 214 210 218 211 200 201 184 188 193 196 193 191 187 196 194 201 210
166 244 223 278 238 278 333 346 117 119 63 64 54 44 41 32 9 12 4 7 9 5 8 318 224 209 218 218 223 210 211 215 214 219 218 214 208 201 197 191 189 194 199 196 192 196 196 208 204
350 337 326 179 328 266 133 282 109 87 70 65 57 38 40 36 13 14 4 11 11 12 5 2 9 312 239 216 211 215 209 208 218 223 223 219 213 205 203 192 193 194 197 198 200 199 205 207 209